RYR6566 LEPA-LEAL

Flight info

Callsign RYR6566
Flight time N/A
Altitude 34000
Route BAVER M603 GERVU
Aircraft A320/M-SDE3FGHIRWY/LB1

Departure

Time 2026-04-30 22:22
Airport Palma de Mallorca Airport (LEPA)

Arrival

Time N/A
Airport Alicante-Elche Miguel Hernández Airport (LEAL)
Time Latitude Longitude Altitude Speed Heading
2026-04-30 22:06 39.55050 2.72801 33 ft 0 kts 148°
2026-04-30 22:12 39.55063 2.72790 32 ft 4 kts 143°
2026-04-30 22:12 39.55084 2.72767 32 ft 4 kts 128°
2026-04-30 22:13 39.55097 2.72738 31 ft 4 kts 101°
2026-04-30 22:13 39.55095 2.72709 27 ft 2 kts 59°
2026-04-30 22:13 39.55095 2.72708 27 ft 0 kts 58°
2026-04-30 22:15 39.55111 2.72742 29 ft 9 kts 59°
2026-04-30 22:16 39.55150 2.72825 31 ft 13 kts 58°
2026-04-30 22:16 39.55208 2.72945 31 ft 18 kts 58°
2026-04-30 22:17 39.55422 2.73428 31 ft 17 kts 96°
2026-04-30 22:17 39.55328 2.73524 35 ft 18 kts 150°
2026-04-30 22:17 39.55121 2.73784 36 ft 22 kts 137°
2026-04-30 22:18 39.54982 2.73901 36 ft 26 kts 149°
2026-04-30 22:18 39.54737 2.73956 35 ft 16 kts 192°
2026-04-30 22:19 39.54577 2.73676 36 ft 24 kts 239°
2026-04-30 22:19 39.54482 2.73471 35 ft 28 kts 239°
2026-04-30 22:19 39.54355 2.73198 36 ft 12 kts 238°
2026-04-30 22:20 39.54279 2.73155 36 ft 15 kts 150°
2026-04-30 22:20 39.54243 2.73224 36 ft 13 kts 113°
2026-04-30 22:20 39.54233 2.73349 36 ft 16 kts 81°
2026-04-30 22:21 39.54281 2.73501 34 ft 21 kts 57°
2026-04-30 22:21 39.54433 2.73817 34 ft 79 kts 58°
2026-04-30 22:21 39.54690 2.74357 37 ft 127 kts 58°
2026-04-30 22:21 39.55467 2.75959 496 ft 172 kts 57°
2026-04-30 22:22 39.56171 2.77334 1130 ft 193 kts 57°
2026-04-30 22:22 39.56693 2.78320 1582 ft 208 kts 55°
2026-04-30 22:22 39.57601 2.79906 2311 ft 232 kts 53°
2026-04-30 22:22 39.58663 2.81649 3229 ft 245 kts 58°
2026-04-30 22:23 39.59460 2.83494 4635 ft 228 kts 63°
2026-04-30 22:23 39.60152 2.85335 5322 ft 228 kts 62°
2026-04-30 22:23 39.60851 2.87184 5656 ft 229 kts 62°
2026-04-30 22:23 39.61602 2.88994 5892 ft 228 kts 54°
2026-04-30 22:24 39.62786 2.90310 6004 ft 226 kts 22°
2026-04-30 22:24 39.64331 2.90571 6238 ft 232 kts 349°
2026-04-30 22:24 39.65786 2.89702 7231 ft 233 kts 319°
2026-04-30 22:24 39.66735 2.88013 8272 ft 234 kts 292°
2026-04-30 22:25 39.67300 2.86033 9357 ft 235 kts 287°
2026-04-30 22:25 39.67753 2.83985 10387 ft 236 kts 283°
2026-04-30 22:25 39.68105 2.81897 11373 ft 238 kts 279°
2026-04-30 22:25 39.68364 2.79750 11871 ft 241 kts 276°
2026-04-30 22:26 39.68686 2.75435 12098 ft 240 kts 279°
2026-04-30 22:26 39.69107 2.73213 12123 ft 275 kts 287°
2026-04-30 22:26 39.69874 2.70737 12115 ft 312 kts 292°
2026-04-30 22:27 39.70768 2.68106 12101 ft 322 kts 292°
2026-04-30 22:27 39.71680 2.65434 12114 ft 325 kts 292°
2026-04-30 22:27 39.73534 2.60003 12863 ft 332 kts 292°
2026-04-30 22:28 39.75401 2.54505 14791 ft 334 kts 292°
2026-04-30 22:28 39.76340 2.51723 15572 ft 339 kts 292°
2026-04-30 22:29 39.79246 2.43088 17911 ft 352 kts 292°
2026-04-30 22:29 39.80232 2.40156 18656 ft 356 kts 292°
2026-04-30 22:30 39.79988 2.27489 21529 ft 370 kts 240°
2026-04-30 22:31 39.75361 2.19160 23648 ft 381 kts 234°
2026-04-30 22:32 39.70609 2.10726 25382 ft 390 kts 235°
2026-04-30 22:32 39.67389 2.05013 26502 ft 395 kts 235°
2026-04-30 22:33 39.62477 1.96299 28087 ft 403 kts 235°
2026-04-30 22:33 39.59138 1.90410 29130 ft 408 kts 235°
2026-04-30 22:34 39.54029 1.81445 30552 ft 416 kts 235°
2026-04-30 22:35 39.50576 1.75390 31467 ft 419 kts 235°
2026-04-30 22:36 39.43659 1.63282 33760 ft 410 kts 234°
2026-04-30 22:36 39.42278 1.60872 34024 ft 408 kts 234°
2026-04-30 22:37 39.39245 1.55591 34116 ft 391 kts 234°
2026-04-30 22:37 39.37633 1.52782 34111 ft 387 kts 234°
2026-04-30 22:38 39.31150 1.41526 34114 ft 388 kts 233°
2026-04-30 22:39 39.30290 1.40033 34114 ft 389 kts 233°
2026-04-30 22:40 39.20763 1.23552 34117 ft 389 kts 233°
2026-04-30 22:41 39.12646 1.09585 34132 ft 393 kts 233°
2026-04-30 22:42 39.05794 0.97845 30876 ft 421 kts 233°
2026-04-30 22:43 39.02868 0.92826 28762 ft 421 kts 233°
2026-04-30 22:43 38.99363 0.86835 26281 ft 417 kts 233°
2026-04-30 22:44 38.95897 0.80940 24010 ft 410 kts 233°
2026-04-30 22:45 38.89104 0.69406 19146 ft 398 kts 233°
2026-04-30 22:45 38.86656 0.63175 17408 ft 381 kts 248°
2026-04-30 22:46 38.84747 0.57075 16036 ft 356 kts 248°
2026-04-30 22:47 38.80914 0.46141 13397 ft 321 kts 238°
2026-04-30 22:47 38.78586 0.41401 12439 ft 310 kts 238°
2026-04-30 22:48 38.76299 0.36749 11789 ft 308 kts 238°
2026-04-30 22:49 38.72868 0.29797 10838 ft 307 kts 238°
2026-04-30 22:49 38.69455 0.22887 9908 ft 302 kts 238°
2026-04-30 22:50 38.65023 0.13947 8231 ft 295 kts 238°
2026-04-30 22:51 38.62818 0.09500 7353 ft 296 kts 238°
2026-04-30 22:51 38.60619 0.05068 6497 ft 297 kts 238°
2026-04-30 22:52 38.59512 0.02841 6046 ft 297 kts 238°
2026-04-30 22:52 38.57291 -0.01611 5134 ft 297 kts 237°
2026-04-30 22:53 38.55066 -0.06065 4225 ft 294 kts 237°
2026-04-30 22:53 38.52870 -0.10466 3343 ft 293 kts 238°
2026-04-30 22:53 38.51813 -0.12579 3032 ft 278 kts 238°
2026-04-30 22:54 38.49948 -0.16305 3005 ft 236 kts 238°
2026-04-30 22:55 38.47265 -0.21512 3006 ft 233 kts 230°
2026-04-30 22:55 38.44591 -0.23839 3008 ft 234 kts 200°
2026-04-30 22:56 38.41522 -0.25212 3005 ft 234 kts 200°
2026-04-30 22:56 38.37325 -0.27105 2941 ft 233 kts 200°
2026-04-30 22:57 38.34268 -0.28487 2844 ft 233 kts 200°
2026-04-30 22:57 38.31218 -0.29862 2744 ft 232 kts 200°
2026-04-30 22:58 38.28175 -0.31225 2581 ft 231 kts 200°
2026-04-30 22:59 38.25156 -0.35076 2504 ft 216 kts 274°
2026-04-30 22:59 38.25926 -0.40204 2353 ft 182 kts 284°